Stündliche Wetter Jubbada Hoose

Heute, 6 März, Samstag

Zeit Temperatur Niederschläge Wind Luftdruck Luftfeuchtigkeit
00:00 +25°C° 0 mm 3 m/S 753 mmHg 77%
01:00 +25°C° 0 mm 3 m/S 753 mmHg 81%
02:00 +24°C° 0 mm 3 m/S 753 mmHg 84%
03:00 +24°C° 0 mm 2 m/S 753 mmHg 88%
04:00 +23°C° 0 mm 2 m/S 753 mmHg 90%
05:00 +23°C° 0 mm 2 m/S 754 mmHg 91%
06:00 +23°C° 0 mm 2 m/S 754 mmHg 93%
07:00 +26°C° 0 mm 3 m/S 755 mmHg 80%
08:00 +29°C° 0 mm 4 m/S 755 mmHg 66%
09:00 +32°C° 0 mm 5 m/S 756 mmHg 53%
10:00 +35°C° 0 mm 5 m/S 756 mmHg 44%
11:00 +39°C° 0 mm 5 m/S 755 mmHg 34%
12:00 +41°C° 0 mm 6 m/S 754 mmHg 25%
13:00 +42°C° 0 mm 5 m/S 753 mmHg 22%
14:00 +43°C° 0 mm 5 m/S 752 mmHg 18%
15:00 +46°C° 0 mm 5 m/S 751 mmHg 15%
16:00 +43°C° 0 mm 5 m/S 751 mmHg 18%
17:00 +42°C° 0 mm 5 m/S 751 mmHg 20%
18:00 +40°C° 0 mm 5 m/S 751 mmHg 23%
19:00 +36°C° 0 mm 5 m/S 751 mmHg 36%
20:00 +32°C° 0 mm 5 m/S 752 mmHg 48%
21:00 +28°C° 0 mm 5 m/S 753 mmHg 61%
22:00 +27°C° 0 mm 5 m/S 753 mmHg 68%
23:00 +26°C° 0 mm 4 m/S 753 mmHg 76%

Morgen, 7 März, Sonntag

Zeit Temperatur Niederschläge Wind Luftdruck Luftfeuchtigkeit
00:00 +25°C° 0 mm 3 m/S 753 mmHg 83%
01:00 +25°C° 0 mm 2 m/S 753 mmHg 86%
02:00 +24°C° 0 mm 2 m/S 753 mmHg 89%
03:00 +24°C° 0 mm 2 m/S 753 mmHg 92%
04:00 +23°C° 0 mm 2 m/S 753 mmHg 92%
05:00 +23°C° 0 mm 2 m/S 753 mmHg 93%
06:00 +23°C° 0 mm 2 m/S 753 mmHg 94%
07:00 +25°C° 0 mm 3 m/S 754 mmHg 83%
08:00 +28°C° 0 mm 4 m/S 755 mmHg 72%
09:00 +30°C° 0 mm 5 m/S 756 mmHg 61%
10:00 +33°C° 0 mm 5 m/S 755 mmHg 54%
11:00 +35°C° 0 mm 5 m/S 755 mmHg 46%
12:00 +36°C° 0 mm 4 m/S 754 mmHg 39%
13:00 +38°C° 0 mm 4 m/S 753 mmHg 32%
14:00 +41°C° 0 mm 4 m/S 752 mmHg 26%
15:00 +43°C° 0 mm 4 m/S 751 mmHg 20%
16:00 +42°C° 0 mm 4 m/S 750 mmHg 22%
17:00 +41°C° 0 mm 4 m/S 750 mmHg 23%
18:00 +39°C° 0 mm 3 m/S 750 mmHg 25%
19:00 +35°C° 0 mm 4 m/S 751 mmHg 40%
20:00 +32°C° 0 mm 5 m/S 751 mmHg 55%
21:00 +28°C° 0 mm 5 m/S 752 mmHg 70%
22:00 +27°C° 0 mm 5 m/S 752 mmHg 75%
23:00 +26°C° 0 mm 4 m/S 753 mmHg 79%

übermorgen, 8 März, Montag

Zeit Temperatur Niederschläge Wind Luftdruck Luftfeuchtigkeit
00:00 +25°C° 0 mm 3 m/S 753 mmHg 84%
01:00 +25°C° 0 mm 2 m/S 753 mmHg 87%
02:00 +24°C° 0 mm 2 m/S 753 mmHg 90%
03:00 +23°C° 0 mm 1 m/S 753 mmHg 93%
04:00 +24°C° 0 mm 1 m/S 753 mmHg 93%
05:00 +24°C° 0 mm 1 m/S 754 mmHg 92%
06:00 +24°C° 0 mm 2 m/S 754 mmHg 92%
07:00 +26°C° 0 mm 2 m/S 754 mmHg 81%
08:00 +28°C° 0 mm 3 m/S 755 mmHg 69%
09:00 +30°C° 0 mm 4 m/S 755 mmHg 58%
10:00 +34°C° 0 mm 4 m/S 755 mmHg 48%
11:00 +37°C° 0 mm 4 m/S 754 mmHg 39%
12:00 +40°C° 0 mm 4 m/S 754 mmHg 29%
13:00 +41°C° 0 mm 4 m/S 752 mmHg 25%
14:00 +42°C° 0 mm 4 m/S 751 mmHg 22%
15:00 +43°C° 0 mm 3 m/S 750 mmHg 19%
16:00 +42°C° 0 mm 4 m/S 750 mmHg 23%
17:00 +40°C° 0 mm 4 m/S 750 mmHg 27%
18:00 +39°C° 0 mm 5 m/S 750 mmHg 30%
19:00 +35°C° 0 mm 5 m/S 751 mmHg 42%
20:00 +32°C° 0 mm 5 m/S 752 mmHg 54%
21:00 +28°C° 0 mm 5 m/S 752 mmHg 65%
22:00 +27°C° 0 mm 4 m/S 753 mmHg 72%
23:00 +26°C° 0 mm 4 m/S 753 mmHg 79%

9 März, Dienstag

Zeit Temperatur Niederschläge Wind Luftdruck Luftfeuchtigkeit
00:00 +25°C° 0 mm 3 m/S 753 mmHg 87%
01:00 +25°C° 0 mm 3 m/S 753 mmHg 89%
02:00 +24°C° 0 mm 2 m/S 753 mmHg 92%
03:00 +24°C° 0 mm 2 m/S 753 mmHg 95%
04:00 +24°C° 0 mm 1 m/S 753 mmHg 94%
05:00 +24°C° 0 mm 1 m/S 754 mmHg 93%
06:00 +23°C° 0 mm 0 m/S 755 mmHg 92%
07:00 +26°C° 0 mm 1 m/S 755 mmHg 84%
08:00 +28°C° 0 mm 2 m/S 756 mmHg 75%
09:00 +30°C° 0 mm 4 m/S 756 mmHg 66%
10:00 +33°C° 0 mm 3 m/S 756 mmHg 56%
11:00 +35°C° 0 mm 3 m/S 755 mmHg 46%
12:00 +38°C° 0 mm 3 m/S 755 mmHg 36%
13:00 +39°C° 0 mm 3 m/S 754 mmHg 31%
14:00 +41°C° 0 mm 2 m/S 753 mmHg 26%
15:00 +42°C° 0 mm 2 m/S 751 mmHg 21%
16:00 +41°C° 0 mm 4 m/S 751 mmHg 28%
17:00 +39°C° 0 mm 6 m/S 751 mmHg 34%
18:00 +37°C° 0 mm 8 m/S 751 mmHg 41%
19:00 +33°C° 0 mm 7 m/S 752 mmHg 51%
20:00 +30°C° 0 mm 6 m/S 753 mmHg 61%
21:00 +28°C° 0 mm 5 m/S 753 mmHg 71%
22:00 +27°C° 0 mm 4 m/S 754 mmHg 76%
23:00 +27°C° 0 mm 4 m/S 754 mmHg 81%

10 März, Mittwoch

Zeit Temperatur Niederschläge Wind Luftdruck Luftfeuchtigkeit
00:00 +26°C° 0 mm 3 m/S 754 mmHg 85%
01:00 +26°C° 0 mm 3 m/S 754 mmHg 88%
02:00 +25°C° 0 mm 2 m/S 754 mmHg 91%
03:00 +25°C° 0 mm 2 m/S 754 mmHg 94%
04:00 +25°C° 0 mm 1 m/S 754 mmHg 93%
05:00 +25°C° 0 mm 1 m/S 755 mmHg 92%
06:00 +26°C° 0 mm 1 m/S 755 mmHg 91%
07:00 +28°C° 0 mm 1 m/S 756 mmHg 81%
08:00 +29°C° 0 mm 2 m/S 756 mmHg 71%
09:00 +31°C° 0 mm 3 m/S 757 mmHg 60%
10:00 +34°C° 0 mm 3 m/S 756 mmHg 52%
11:00 +36°C° 0 mm 3 m/S 755 mmHg 43%
12:00 +38°C° 0 mm 4 m/S 755 mmHg 34%
13:00 +40°C° 0 mm 4 m/S 754 mmHg 31%
14:00 +41°C° 0 mm 4 m/S 753 mmHg 28%
15:00 +42°C° 0 mm 4 m/S 752 mmHg 24%
16:00 +41°C° 0 mm 4 m/S 752 mmHg 28%
17:00 +40°C° 0 mm 4 m/S 752 mmHg 32%
18:00 +37°C° 0 mm 5 m/S 752 mmHg 35%
19:00 +35°C° 0 mm 5 m/S 752 mmHg 48%
20:00 +32°C° 0 mm 5 m/S 753 mmHg 60%
21:00 +28°C° 0 mm 6 m/S 753 mmHg 73%
22:00 +28°C° 0 mm 5 m/S 753 mmHg 76%
23:00 +27°C° 0 mm 4 m/S 754 mmHg 79%

11 März, Donnerstag

Zeit Temperatur Niederschläge Wind Luftdruck Luftfeuchtigkeit
00:00 +27°C° 0 mm 4 m/S 754 mmHg 82%
01:00 +26°C° 0 mm 3 m/S 753 mmHg 86%
02:00 +26°C° 0 mm 3 m/S 753 mmHg 89%
03:00 +25°C° 0 mm 2 m/S 753 mmHg 93%
04:00 +25°C° 0 mm 2 m/S 753 mmHg 94%
05:00 +25°C° 0 mm 2 m/S 754 mmHg 94%
06:00 +25°C° 0 mm 1 m/S 754 mmHg 95%
07:00 +27°C° 0 mm 2 m/S 755 mmHg 85%
08:00 +29°C° 0 mm 3 m/S 755 mmHg 74%
09:00 +32°C° 0 mm 4 m/S 756 mmHg 64%
10:00 +34°C° 0 mm 3 m/S 755 mmHg 53%
11:00 +37°C° 0 mm 3 m/S 755 mmHg 43%
12:00 +39°C° 0 mm 3 m/S 754 mmHg 32%
13:00 +40°C° 0 mm 3 m/S 753 mmHg 29%
14:00 +42°C° 0 mm 3 m/S 752 mmHg 25%
15:00 +43°C° 0 mm 3 m/S 751 mmHg 22%
16:00 +41°C° 0 mm 4 m/S 751 mmHg 29%
17:00 +39°C° 0 mm 6 m/S 751 mmHg 36%
18:00 +36°C° 0 mm 7 m/S 751 mmHg 43%
19:00 +33°C° 0 mm 7 m/S 752 mmHg 54%
20:00 +30°C° 0 mm 6 m/S 752 mmHg 64%
21:00 +28°C° 0 mm 6 m/S 753 mmHg 74%
22:00 +28°C° 0 mm 5 m/S 753 mmHg 78%
23:00 +27°C° 0 mm 4 m/S 753 mmHg 82%
Mehr zeigen

Wir brauchen deine Erlaubnis

Meteoprog und unser Service Anbieter werden persönliche Daten aufbewahren, so wie Cookies, Geräte Bezeichnung oder ähnliche Technologien von deinem Gerät und Prozess, so wie Persönliche Daten Inhalte und Werbungen, genauso wie social Media und den Verkehr zu analysieren.

  • Aufbewahrung und/oder Zugang zu deiner Geräte Informationen.

    Cookies, Geräte Bezeichnung oder andere Informationen, können aufbewahrt oder Zugang zu deinem Gerät erhalten, für den Grund, der oben angegeben wird.

  • Personalisierte Werbung und Inhalte, Messungen, Einblick in das Publikum und Produkt Entwicklung.

    Werbungen und Inhalte können personalisiert werden, basierend auf ein Profil. Mehr Daten können besser personalisierte Werbungen und Inhalte hinzufügen. Werbung und Inhalte können gezeigt und gemessen werden. Einblicke über das Publikum, welche die Werbung gesehen haben und den Inhalt, können abgeleitet werden. So wie Daten können genutzt werden, um es zu verbessern oder die Benutzer Erfahrung zu verbessern das System und die Software.

Wenn du “Ich stimme zu” klickst, erlaubst du uns, die Cookies zu benutzen die Geräte Bezeichnung, den Web oder ähnliche Technologien zu benutzen. Deine Settings, können in deinem Gerät bei deinem Browser geändert werden.

Für den bestimmten Zweck, berechtigten Interessen beruhen darauf, mehr als auf den Inhalt. Du kannst mehr darüber in unseren Privaten und Cookie Politik lesen.